Location: Al Mulaqqa?ah
(24.1833°N, 32.8833°E)
Time: 21:11:20
(UTC+00:00)

Cosmos 2154 Rocket - Pass Details

Date: 26 September 2021
Orbit: 965 x 997 km, 82.9° (Epoch: 25 October)

Event Time Altitude Azimuth Distance (km) Brightness Sun altitude
Rises 15:57:03 0° 166° (SSE) 3,694 6.9 -4.6°
Reaches altitude 10° 15:59:41 10° 159° (SSE) 2,750 6.2 -5.2°
Maximum altitude 16:05:34 42° 90° (E) 1,382 4.4 -6.5°
Drops below altitude 10° 16:11:29 10° 22° (NNE) 2,763 6.2 -7.9°
Sets 16:14:08 0° 15° (NNE) 3,714 6.9 -8.5°
